Freeport, IL

2:53 AM CST on December 13, 2019 (GMT -0600)
Albertus

Weather History for KFEP - October, 2019

Change the Weather History Date:

Friday, October 4, 2019

  Actual Average Record
Temperature  
Mean Temperature 48 °F -  
Max Temperature 58 °F 68 °F 83 °F (1976)
Min Temperature 40 °F 42 °F 27 °F (1989)
Degree Days  
Heating Degree Days 16    
Moisture  
Dew Point 44 °F    
Average Humidity 85    
Maximum Humidity 100    
Minimum Humidity 65    
Precipitation  
Precipitation 0.00 in - - ()
Sea Level Pressure  
Sea Level Pressure 30.38 in    
Wind  
Wind Speed 6 mph (NE)    
Max Wind Speed 12 mph    
Max Gust Speed 17 mph    
Visibility 8 miles    
Events      
Averages and records for this station are not official NWS values.
T = Trace of Precipitation, MM = Missing Value Source: NWS Daily Summary

Daily Weather History Graph

Daily Weather History Graph

Search for Another Location

Airport or City:

Astronomy

Oct. 04, 2019 Rise Set
Actual Time 6:58 AM CDT 6:35 PM CDT
Civil Twilight 6:30 AM CDT 7:02 PM CDT
Nautical Twilight 5:57 AM CDT 7:35 PM CDT
Astronomical Twilight 5:25 AM CDT 8:08 PM CDT
Moon 1:36 PM CDT (10/4) 10:57 PM CDT (10/4)
Length of Visible Light 12h 32m
Length of Day
11h 36m
Waxing Crescent, 40% of the Moon is Illuminated
Oct 4
Waxing Crescent
Oct 5
First Quarter
Oct 13
Full
Oct 21
Last Quarter
Oct 27
New

Hourly Weather History & Observations

Time (CDT) Temp. Windchill Dew Point Humidity Pressure Visibility Wind Dir Wind Speed Gust Speed Precip Events Conditions
12:15 AM 44.4 °F 40.5 °F 41.7 °F 90% 30.33 in 10.0 mi North 6.9 mph - N/A   Clear
12:35 AM 44.6 °F 40.2 °F 41.4 °F 88% 30.32 in 10.0 mi North 8.1 mph - N/A   Clear
12:55 AM 44.6 °F 40.7 °F 41.4 °F 88% 30.33 in 10.0 mi North 6.9 mph - N/A   Clear
1:15 AM 43.9 °F 41.3 °F 41.0 °F 90% 30.34 in 10.0 mi North 4.6 mph - N/A   Clear
1:35 AM 43.0 °F 39.5 °F 41.0 °F 93% 30.34 in 10.0 mi NNW 5.8 mph - N/A   Clear
1:55 AM 42.6 °F 38.4 °F 41.0 °F 94% 30.35 in 10.0 mi NNW 6.9 mph - N/A   Clear
2:15 AM 42.6 °F 39.9 °F 40.6 °F 93% 30.36 in 10.0 mi NNW 4.6 mph - N/A   Clear
2:35 AM 42.3 °F 38.6 °F 40.5 °F 93% 30.36 in 10.0 mi North 5.8 mph - N/A   Clear
2:55 AM 42.3 °F 38.6 °F 40.5 °F 93% 30.36 in 10.0 mi NNW 5.8 mph - N/A   Clear
3:15 AM 42.4 °F 38.8 °F 40.3 °F 92% 30.37 in 10.0 mi North 5.8 mph - N/A   Clear
3:35 AM 42.1 °F 38.4 °F 40.6 °F 95% 30.36 in 10.0 mi North 5.8 mph - N/A   Clear
3:55 AM 42.1 °F 38.4 °F 40.6 °F 95% 30.37 in 10.0 mi North 5.8 mph - N/A   Clear
4:15 AM 41.7 °F 38.0 °F 40.6 °F 96% 30.37 in 10.0 mi North 5.8 mph - N/A   Clear
4:35 AM 41.5 °F 38.6 °F 40.6 °F 97% 30.38 in 10.0 mi North 4.6 mph - N/A   Clear
4:55 AM 40.8 °F 38.8 °F 40.3 °F 98% 30.38 in 10.0 mi NNW 3.5 mph - N/A   Clear
5:15 AM 40.5 °F 37.3 °F 40.1 °F 99% 30.38 in 10.0 mi North 4.6 mph - N/A   Clear
5:35 AM 40.6 °F 37.5 °F 40.3 °F 99% 30.39 in 10.0 mi North 4.6 mph - N/A   Clear
5:55 AM 40.6 °F - 40.5 °F 99% 30.39 in 10.0 mi Calm Calm - N/A   Clear
6:15 AM 40.6 °F 37.5 °F 40.3 °F 99% 30.40 in 10.0 mi North 4.6 mph - N/A   Clear
6:35 AM 40.3 °F 37.1 °F 40.3 °F 100% 30.41 in 10.0 mi North 4.6 mph - N/A   Clear
6:55 AM 40.5 °F 37.3 °F 40.5 °F 100% 30.41 in 10.0 mi North 4.6 mph - N/A   Clear
7:15 AM 40.8 °F 38.8 °F 40.8 °F 100% 30.42 in 10.0 mi North 3.5 mph - N/A   Clear
7:35 AM 41.5 °F 38.6 °F 41.5 °F 100% 30.43 in 10.0 mi North 4.6 mph - N/A   Clear
7:55 AM 43.0 °F 40.3 °F 42.8 °F 99% 30.43 in 10.0 mi North 4.6 mph - N/A   Clear
8:15 AM 44.1 °F 40.8 °F 43.0 °F 96% 30.44 in 10.0 mi North 5.8 mph - N/A   Clear
8:35 AM 45.0 °F 41.8 °F 43.5 °F 95% 30.44 in 10.0 mi NNE 5.8 mph - N/A   Scattered Clouds
8:55 AM 46.2 °F 42.7 °F 44.6 °F 94% 30.44 in 10.0 mi NNE 6.9 mph - N/A   Overcast
9:15 AM 48.2 °F - 45.3 °F 90% 30.44 in 10.0 mi NE 9.2 mph - N/A   Overcast
9:35 AM 49.6 °F - 45.7 °F 86% 30.44 in 10.0 mi ENE 11.5 mph 17.3 mph N/A   Overcast
9:55 AM 50.2 °F - 45.5 °F 84% 30.45 in 10.0 mi ENE 10.4 mph - N/A   Overcast
10:15 AM 51.8 °F - 46.2 °F 81% 30.45 in 10.0 mi ENE 8.1 mph - N/A   Mostly Cloudy
10:35 AM 53.1 °F - 46.2 °F 78% 30.44 in 10.0 mi NE 8.1 mph - N/A   Overcast
10:55 AM 53.1 °F - 45.7 °F 76% 30.44 in 10.0 mi ENE 10.4 mph - N/A   Overcast
11:15 AM 53.8 °F - 45.7 °F 74% 30.44 in 10.0 mi NE 6.9 mph - N/A   Mostly Cloudy
11:35 AM 54.9 °F - 45.9 °F 72% 30.44 in 10.0 mi NE 8.1 mph - N/A   Overcast
11:55 AM 56.3 °F - 46.6 °F 70% 30.43 in 10.0 mi East 9.2 mph - N/A   Mostly Cloudy
12:15 PM 56.1 °F - 45.7 °F 68% 30.42 in 10.0 mi East 9.2 mph - N/A   Overcast
12:35 PM 56.1 °F - 46.0 °F 69% 30.42 in 10.0 mi ENE 6.9 mph - N/A   Mostly Cloudy
12:55 PM 55.9 °F - 46.2 °F 70% 30.42 in 10.0 mi ENE 6.9 mph - N/A   Mostly Cloudy
1:15 PM 55.6 °F - 46.0 °F 70% 30.41 in 10.0 mi NE 8.1 mph - N/A   Overcast
1:35 PM 55.9 °F - 45.7 °F 68% 30.40 in 10.0 mi ENE 9.2 mph - N/A   Overcast
1:55 PM 56.1 °F - 45.9 °F 68% 30.40 in 7.0 mi East 4.6 mph - N/A   Overcast
2:15 PM 56.8 °F - 45.7 °F 66% 30.38 in 10.0 mi ENE 9.2 mph - N/A   Overcast
2:35 PM 56.5 °F - 45.9 °F 68% 30.39 in 10.0 mi ENE 3.5 mph - N/A   Overcast
2:55 PM 56.8 °F - 45.9 °F 67% 30.38 in 10.0 mi East 5.8 mph - N/A   Overcast
3:15 PM 56.7 °F - 46.6 °F 69% 30.38 in 7.0 mi East 8.1 mph - N/A   Overcast
3:35 PM 56.7 °F - 46.6 °F 69% 30.37 in 5.0 mi ENE 8.1 mph - N/A   Haze
3:55 PM 56.5 °F - 45.7 °F 67% 30.37 in 5.0 mi ENE 5.8 mph - N/A   Haze
4:15 PM 56.7 °F - 46.2 °F 68% 30.36 in 7.0 mi East 8.1 mph - N/A   Overcast
4:35 PM 57.6 °F - 46.2 °F 66% 30.36 in 10.0 mi ENE 8.1 mph - N/A   Mostly Cloudy
4:55 PM 57.0 °F - 45.3 °F 65% 30.36 in 7.0 mi East 8.1 mph - N/A   Mostly Cloudy
5:15 PM 56.1 °F - 45.5 °F 68% 30.36 in 5.0 mi East 8.1 mph - N/A   Haze
5:35 PM 55.6 °F - 45.5 °F 69% 30.36 in 4.0 mi ENE 4.6 mph - N/A   Haze
5:55 PM 55.4 °F - 45.3 °F 69% 30.35 in 4.0 mi East 5.8 mph - N/A   Haze
6:15 PM 55.0 °F - 44.8 °F 68% 30.35 in 3.0 mi East 6.9 mph - N/A   Haze
6:35 PM 54.0 °F - 46.4 °F 76% 30.35 in 4.0 mi East 8.1 mph - N/A   Haze
6:55 PM 53.8 °F - 46.2 °F 76% 30.35 in 4.0 mi East 9.2 mph - N/A   Haze
7:15 PM 53.2 °F - 46.4 °F 78% 30.35 in 4.0 mi East 5.8 mph - N/A   Haze
7:35 PM 52.7 °F - 46.4 °F 79% 30.35 in 4.0 mi East 6.9 mph - N/A   Haze
7:55 PM 51.8 °F - 45.9 °F 80% 30.35 in 4.0 mi East 9.2 mph - N/A   Haze
8:15 PM 50.2 °F - 45.9 °F 85% 30.35 in 3.0 mi East 8.1 mph - N/A   Mostly Cloudy
8:35 PM 48.4 °F - 46.4 °F 93% 30.34 in 1.8 mi East 5.8 mph - N/A   Scattered Clouds
8:55 PM 47.3 °F - 46.4 °F 97% 30.34 in 1.2 mi East 4.6 mph - N/A   Mist
9:15 PM 46.4 °F 44.3 °F 45.9 °F 98% 30.34 in 1.2 mi East 4.6 mph - N/A   Mist
9:35 PM 46.0 °F 43.9 °F 45.7 °F 99% 30.34 in 1.8 mi East 4.6 mph - N/A   Mist
9:55 PM 45.7 °F 43.4 °F 45.5 °F 99% 30.34 in 1.5 mi East 4.6 mph - N/A   Mist
10:15 PM 45.5 °F 43.2 °F 45.3 °F 99% 30.33 in 1.2 mi East 4.6 mph - N/A   Mist
10:35 PM 45.1 °F 42.0 °F 45.0 °F 99% 30.33 in 1.2 mi East 5.8 mph - N/A   Mist
10:55 PM 45.5 °F 42.5 °F 45.1 °F 99% 30.33 in 1.2 mi East 5.8 mph - N/A   Mist
11:15 PM 44.4 °F 42.0 °F 44.4 °F 100% 30.32 in 1.2 mi ESE 4.6 mph - N/A   Mist
11:35 PM 44.1 °F - 44.1 °F 100% 30.32 in 1.2 mi Calm Calm - N/A   Mist
11:55 PM 43.3 °F 40.7 °F 43.3 °F 100% 30.31 in 1.0 mi East 4.6 mph - N/A   Mist